This is the latest recevied weather packets stored in our database for station/object DB0OHA-10. If no packets are shown the sender has not sent any weather packets the latest 10 day(s).
| Time | Temp. | Humidity | Pressure | Rain* | Wind** | Luminosity | Snow |
|---|---|---|---|---|---|---|---|
| 1777610718 | 7.22° C | 61% | 1028.4 hPa | 0 mm | - | 18 W/m² | - |
| 1777609825 | 6.67° C | 61% | 1028.5 hPa | 0 mm | - | 14 W/m² | - |
| 1777609818 | 6.67° C | 61% | 1028.5 hPa | 0 mm | - | 14 W/m² | - |
| 1777608918 | 6.67° C | 60% | 1028.5 hPa | 0 mm | - | 11 W/m² | - |
| 1777608018 | 6.67° C | 59% | 1028.5 hPa | 0 mm | - | 5 W/m² | - |
| 1777607118 | 6.11° C | 56% | 1028.4 hPa | 0 mm | - | 0 W/m² | - |
| 1777606224 | 5.56° C | 55% | 1028.4 hPa | 0 mm | - | 0 W/m² | - |
| 1777606218 | 5.56° C | 55% | 1028.4 hPa | 0 mm | - | 0 W/m² | - |
| 1777605318 | 6.11° C | 63% | 1028.3 hPa | 0 mm | - | 0 W/m² | - |
| 1777604491 | 6.67° C | 64% | 1028.3 hPa | 0 mm | - | 0 W/m² | - |
| 1777604424 | 6.67° C | 64% | 1028.3 hPa | 0 mm | - | 0 W/m² | - |
| 1777604418 | 6.67° C | 64% | 1028.3 hPa | 0 mm | - | 0 W/m² | - |
| 1777603518 | 6.67° C | 65% | 1028.4 hPa | 0 mm | - | 0 W/m² | - |
| 1777602623 | 6.67° C | 65% | 1028.4 hPa | 0 mm | - | 0 W/m² | - |
| 1777602618 | 6.67° C | 65% | 1028.4 hPa | 0 mm | - | 0 W/m² | - |
| 1777601718 | 6.67° C | 66% | 1028.6 hPa | 0 mm | - | 0 W/m² | - |
| 1777600818 | 7.22° C | 66% | 1028.6 hPa | 0 mm | - | 0 W/m² | - |
| 1777599923 | 7.22° C | 66% | 1028.5 hPa | 0 mm | - | 0 W/m² | - |
| 1777599918 | 7.22° C | 66% | 1028.5 hPa | 0 mm | - | 0 W/m² | - |
| 1777599018 | 7.78° C | 66% | 1028.5 hPa | 0 mm | - | 0 W/m² | - |
| 1777598123 | 7.78° C | 66% | 1028.5 hPa | 0 mm | - | 0 W/m² | - |
| 1777598118 | 7.78° C | 66% | 1028.5 hPa | 0 mm | - | 0 W/m² | - |
| 1777597218 | 7.78° C | 65% | 1028.4 hPa | 0 mm | - | 0 W/m² | - |
| 1777596325 | 7.78° C | 64% | 1028.6 hPa | 0 mm | - | 0 W/m² | - |
| 1777596318 | 7.78° C | 64% | 1028.6 hPa | 0 mm | - | 0 W/m² | - |
* Rain latest hour (hover to see other rain measurements)
** Current wind speed in m/s (hover to see current wind gust speed)